User: anonymous   Login
Location: Quedlinburg
(51.7921°N, 11.1414°E)
Time: 23:41:06
(UTC+01:00)
Language:

BUGSAT 1 - Orbit

View from above orbital plane
View from above orbital plane
View from above satellite
View from above satellite

Ground track
Ground track

The orbit is defined by the following mean orbital elements,

1 40014U          26071.67754962 +.00000000 +00000-0 +44265-3 0 00008
2 40014  98.0423 158.6715 0029443 148.2641 212.0372 15.14547253    02
Epoch (UTC): 12 March 2026 16:15:40
Eccentricity: 0.0029443
inclination: 98.0423°
perigee height: 502 km
apogee height: 543 km
right ascension of ascending node: 158.6715°
argument of perigee: 148.2641°
revolutions per day: 15.14547253
mean anomaly at epoch: 212.0372°

The dashed part of the orbit path shows where the satellite is in the earth's shadow,  

DLR